Find Jilin-1 GaoFen 07D 01 xing

NORAD ID: 66996 Int'l Des: NNA 2025-292 Owner: CGSTL Country: CN Constellation: jilin-1 operational
LEOCIRCULARRETROGRADESSO

Current View

Loading 3D Globe...

About Jilin-1 GaoFen 07D 01 xing

Description loading...

Upcoming Passes

Passes for default location (London). Set your location on the main map for personalized predictions.

Altitude History

Loading altitude history...

Two-Line Element Set

1 66996U 25292D 26145.60022198 .00003051 00000-0 21375-3 0 9992
2 66996 97.6322 221.4999 0016137 81.0717 279.2335 15.05876118 25049
Epoch: May 25, 2026 • Age: 18 hours

Current Status

Altitude 550.8 km
Velocity 7.59 km/s
Sub-Earth Point 12.97°N, 29.81°E
Launch Date Dec 10, 2025
Age 0.4 years
Type other

Technical Details

Classification Payload
Mass 50.00 kg
Dry Mass 50.00 kg
Total Mass 50.00 kg
Length 1.50 m
Diameter 1.00 m
Span 1.50 m
Shape Box
Manufacturer CGSTL
Bus Type JL-1GF07
Phase Status In Orbit
Owner/State CGSTL/CN

Most Searched